Weather History for Knoxville, TN

Change the Weather History Date:

Wednesday, October 16, 2013

  Actual Average Record
Temperature  
Mean Temperature 64 °F 60 °F  
Max Temperature 70 °F 71 °F 87 °F (1897)
Min Temperature 58 °F 48 °F 25 °F (1876)
Degree Days  
Heating Degree Days 1 6  
Month to date heating degree days 12 69  
Since 1 July heating degree days 13 92  
Cooling Degree Days 0 1  
Month to date cooling degree days 51 27  
Year to date cooling degree days 1436 1514  
Growing Degree Days 14 (Base 50)    
Moisture  
Dew Point 58 °F    
Average Humidity 80    
Maximum Humidity 93    
Minimum Humidity 66    
Precipitation  
Precipitation 0.01 in 0.07 in 1.98 in (1932)
Month to date precipitation 0.32 1.26  
Year to date precipitation 56.12 38.10  
Snow  
Snow 0.00 in 0.00 in - ()
Month to date snowfall 0.0 0.0  
Since 1 July snowfall 0.0 0.0  
Since 1 September snowfall 0.0 0.0  
Snow Depth 0.00 in    
Sea Level Pressure  
Sea Level Pressure 29.99 in    
Wind  
Wind Speed 4 mph (WSW)    
Max Wind Speed 12 mph    
Max Gust Speed -    
Visibility 10 miles    
Events Rain    
T = Trace of Precipitation, MM = Missing Value Source: NWS Daily Summary

Daily Weather History Graph

Daily Weather History Graph

Search for Another Location

Airport:

Trip Planner

Search our weather history database for the weather conditions in past years. The results will help you decide how hot, cold, wet, or windy it might be!

Date:

Astronomy

Oct. 16, 2013 Rise Set
Actual Time 7:43 AM EDT 6:58 PM EDT
Civil Twilight 7:17 AM EDT 7:24 PM EDT
Nautical Twilight 6:48 AM EDT 7:54 PM EDT
Astronomical Twilight 6:18 AM EDT 8:23 PM EDT
Moon 5:34 PM EDT (10/16) 5:14 AM EDT (10/16)
Length of Visible Light 12h 06m
Length of Day
11h 14m
Waxing Gibbous, 94% of the Moon is Illuminated
Oct 16
Waxing Gibbous
Oct 18
Full
Oct 26
Last Quarter
Nov 3
New
Nov 10
First Quarter

Hourly Weather History & Observations

Time (EDT) Temp. Dew Point Humidity Pressure Visibility Wind Dir Wind Speed Gust Speed Precip Events Conditions
12:53 AM 63.0 °F 57.0 °F 81% 30.01 in 10.0 mi WSW 5.8 mph - N/A   Mostly Cloudy
1:53 AM 61.0 °F 57.0 °F 87% 30.01 in 10.0 mi SW 5.8 mph - N/A   Overcast
2:53 AM 60.1 °F 57.0 °F 90% 30.00 in 10.0 mi SW 3.5 mph - N/A   Mostly Cloudy
3:53 AM 60.1 °F 57.0 °F 90% 30.00 in 10.0 mi Calm Calm - N/A   Mostly Cloudy
4:53 AM 59.0 °F 55.9 °F 90% 30.00 in 10.0 mi Calm Calm - N/A   Scattered Clouds
5:53 AM 59.0 °F 57.0 °F 93% 30.01 in 10.0 mi Calm Calm - N/A   Mostly Cloudy
6:53 AM 60.1 °F 57.0 °F 90% 30.02 in 10.0 mi Calm Calm - N/A   Overcast
7:53 AM 60.1 °F 57.9 °F 93% 30.03 in 10.0 mi South 3.5 mph - 0.00 in Rain Light Rain
8:53 AM 61.0 °F 57.9 °F 90% 30.04 in 10.0 mi Calm Calm - 0.00 in   Overcast
9:53 AM 62.1 °F 57.0 °F 84% 30.05 in 10.0 mi West 4.6 mph - N/A   Overcast
10:53 AM 63.0 °F 57.9 °F 84% 30.04 in 10.0 mi NW 3.5 mph - N/A   Overcast
11:53 AM 64.9 °F 57.9 °F 78% 30.04 in 10.0 mi WSW 4.6 mph - N/A   Overcast
12:53 PM 69.1 °F 57.9 °F 68% 30.01 in 10.0 mi Variable 6.9 mph - N/A   Overcast
1:41 PM 69.8 °F 57.2 °F 64% 30.01 in 10.0 mi SW 10.4 mph - N/A   Overcast
1:53 PM 68.0 °F 57.0 °F 68% 30.00 in 10.0 mi SW 11.5 mph - N/A   Overcast
2:53 PM 69.1 °F 57.9 °F 68% 29.97 in 10.0 mi West 6.9 mph - N/A   Overcast
3:53 PM 69.1 °F 57.9 °F 68% 29.97 in 10.0 mi West 6.9 mph - N/A   Overcast
4:53 PM 69.1 °F 59.0 °F 70% 29.96 in 10.0 mi WSW 5.8 mph - N/A   Overcast
5:53 PM 68.0 °F 59.0 °F 73% 29.95 in 10.0 mi West 4.6 mph - N/A   Overcast
6:53 PM 68.0 °F 59.0 °F 73% 29.95 in 10.0 mi West 3.5 mph - N/A   Overcast
7:53 PM 66.9 °F 59.0 °F 76% 29.96 in 10.0 mi Calm Calm - N/A   Overcast
8:53 PM 66.0 °F 59.0 °F 78% 29.97 in 10.0 mi Calm Calm - N/A   Overcast
9:53 PM 64.9 °F 61.0 °F 87% 29.97 in 10.0 mi Calm Calm - 0.01 in Rain Light Rain
10:53 PM 64.0 °F 61.0 °F 90% 29.96 in 10.0 mi ENE 3.5 mph - 0.00 in Rain Light Rain
11:53 PM 64.0 °F 61.0 °F 90% 29.94 in 10.0 mi ENE 3.5 mph - 0.00 in   Overcast